Regional Weather Roundup
Issued by NWS Grand Forks, ND

Home | Current Version | Previous Version | Graphics & Text | Print | Product List | Glossary On
Versions: 1 2 3 4 5 6 7 8 9 10 11 12 13 14 15 16 17 18 19 20 21 22 23 24 25 26 27 28 29 30 31 32 33 34 35 36 37 38 39 40 41 42 43 44 45 46 47 48 49 50
000
ASUS43 KFGF 281210
RWRFGF
PRAIRIE TO PINES  WEATHER ROUNDUP
NATIONAL WEATHER SERVICE EASTERN NORTH DAKOTA/GRAND FORKS ND
700 AM CDT TUE MAR 28 2017

 **SATELLITE DATA USED TO AUGMENT SKY COVER AT AUTOMATED STATIONS**
 *****  WEATHER ACROSS EASTERN NORTH DAKOTA  *****

CITY           SKY/WX    TMP DP  RH WIND       PRES   REMARKS
GRAND FORKS    MOCLDY    33  32  96 N9        30.13R
6HR MIN TEMP:  33; 6HR MAX TEMP:  36; 6HR PCP:  0.02;

GRAND FRKS AFB CLOUDY    33  32  99 N7        30.14R
DEVILS LAKE    CLOUDY    33  30  88 NE7       30.12S
6HR MIN TEMP:  32; 6HR MAX TEMP:  34;

FARGO          FOG       32  32 100 NW6       30.13R VSB 1/4
WAHPETON ARPT    N/A     32  30  93 NW5       30.12R VSB 1/4
$$

 ***** WEATHER ACROSS CENTRAL AND WESTERN NORTH DAKOTA  *****

CITY           SKY/WX    TMP DP  RH WIND       PRES   REMARKS
BISMARCK       FAIR      34  31  88 E10       30.07R
6HR MIN TEMP:  28; 6HR MAX TEMP:  41;

MINOT          FOG       34  33  96 E10       30.10R VSB 1
6HR MIN TEMP:  34; 6HR MAX TEMP:  36;

JAMESTOWN      FOG       31  31 100 N5        30.11R VSB 1/4
6HR MIN TEMP:  31; 6HR MAX TEMP:  34;

MINOT AFB      NOT AVBL
GARRISON         N/A     33  33 100 E10       30.07R WCI  25
WILLISTON      CLOUDY    37  35  92 E8        30.04R
6HR MIN TEMP:  37; 6HR MAX TEMP:  40; 6HR PCP: TRACE;

DICKINSON      FAIR      29  28  96 E5        30.00R WCI  24
6HR MIN TEMP:  29; 6HR MAX TEMP:  38;

HETTINGER      FAIR      30  27  88 CALM      30.02R
6HR MIN TEMP:  26; 6HR MAX TEMP:  39;

$$

 *****  OTHER AIRPORT OBSERVATIONS IN OUR AREA  *****

CITY           SKY/WX    TMP DP  RH WIND       PRES   REMARKS
WALHALLA       NOT AVBL
GRAFTON AIRPOR CLOUDY    32  32 100 N9        30.17R WCI  24
VALLEY CITY AR MIX PCPN  28  28 100 CALM      30.13S VSB<1/4
CANDO          NOT AVBL
CAVALIER APRT  FAIR      30  30 100 N8        30.17R WCI  23
GWINNER        FOG       30  30 100 MISG      30.11R VSB 0
ROLLA          CLOUDY    30  30 100 NE9       30.14R WCI  22
 ***** THE ABOVE OBSERVATIONS ARE NON NWS ARE NOT QUALITY
       CONTROLLED AND MAY MIS-REPORT RAIN FOR SNOW...
$$

  *****  WEATHER ACROSS NORTHERN MINNESOTA  *****

CITY           SKY/WX    TMP DP  RH WIND       PRES   REMARKS
FLAG ISLAND    FAIR      32  27  80 N5        30.15R
WARROAD        FAIR      32  28  86 N3        30.15R
ROSEAU         FAIR      32  27  80 N5        30.15R
HALLOCK        FAIR      32  30  93 NW5       30.15R
THF RVR FALLS  CLOUDY   N/A N/A N/A NE10      30.13R
BAUDETTE       FAIR      32  27  81 N3        30.13R
6HR MIN TEMP:  31; 6HR MAX TEMP:  40;

WASKISH        FAIR      30  28  93 CALM      30.11R
CROOKSTON      CLOUDY    32  30  93 CALM      30.13S FOG
GREENBUSH NDAW   N/A     32  30  93 NE3         N/A
$$
  *****  WEATHER ACROSS CENTRAL AND WEST MINNESOTA  *****

CITY           SKY/WX    TMP DP  RH WIND       PRES   REMARKS
FOSSTON        FAIR      30  28  93 N3        30.11R
BEMIDJI        FAIR      27  25  91 CALM      30.09S
PARK RAPIDS    FAIR      29  24  82 CALM      30.08R
6HR MIN TEMP:  26; 6HR MAX TEMP:  39;

ELBOW LAKE     FAIR      31  31  99 CALM      30.10R
6HR MIN TEMP:  31; 6HR MAX TEMP:  38;

WADENA         FAIR      27  25  93 CALM      30.09R
DETROIT LAKES  FAIR      32  30  93 CALM      30.10R
MOORHEAD       FOG       30  30 100 NW6       30.14R VSB 1/4 WCI  24
FERGUS FALLS   FAIR      30  30 100 N3        30.14R FOG
MORRIS MN      FAIR      30  28  93 SE3       30.08S
STAPLES        FAIR      27  25  93 CALM      30.10R
$$
  *****  WEATHER ELSEWHERE ACROSS MINNESOTA  *****

CITY           SKY/WX    TMP DP  RH WIND       PRES   REMARKS
DULUTH         FAIR      26  23  88 CALM      30.09R
6HR MIN TEMP:  24; 6HR MAX TEMP:  31;

INTRNTL FALLS  FAIR      35  27  72 NE7       30.11R
6HR MIN TEMP:  35; 6HR MAX TEMP:  41;

ELY            FAIR      27  27 100 CALM      30.10R
CLOQUET        FAIR      25  23  93 NW3       30.10R
WHEATON        FOG       28  28 100 NW6       30.13R VSB 1/4 WCI  22
BRAINERD       FAIR      25  24  96 CALM      30.09R
6HR MIN TEMP:  24; 6HR MAX TEMP:  30;

HIBBING        FAIR      23  23 100 CALM      30.10R
6HR MIN TEMP:  23; 6HR MAX TEMP:  26;

ALEXANDRIA     FAIR      33  31  92 SE5       30.10R
6HR MIN TEMP:  31; 6HR MAX TEMP:  38;

SAINT CLOUD    FAIR      27  27 100 CALM      30.09S
6HR MIN TEMP:  27; 6HR MAX TEMP:  33;

MINNEAPOLIS    FAIR      36  33  89 CALM      30.10R
6HR MIN TEMP:  35; 6HR MAX TEMP:  43;

$$

  *****  WEATHER ACROSS SOUTH DAKOTA  *****

CITY           SKY/WX    TMP DP  RH WIND       PRES   REMARKS
SIOUX FALLS    FOG       30  29  96 NE3       30.08R VSB 1
6HR MIN TEMP:  28; 6HR MAX TEMP:  42;

BROOKINGS      FAIR      34  33  96 CALM      30.07S
WATERTOWN      FAIR      31  30  96 CALM      30.07R
6HR MIN TEMP:  30; 6HR MAX TEMP:  44;

HURON          FAIR      34  34 100 SE7       30.06R
6HR MIN TEMP:  32; 6HR MAX TEMP:  42;

SISSETON         N/A     31  31 100 N5        30.10R
ABERDEEN       FAIR      31  27  85 E5        30.08R
6HR MIN TEMP:  28; 6HR MAX TEMP:  38;

MITCHELL       FAIR      32  32 100 SE5       30.06R FOG
PIERRE         MOCLDY    42  36  79 E7        30.00R
6HR MIN TEMP:  37; 6HR MAX TEMP:  42;

MOBRIDGE       FAIR      38  30  73 E6        30.01R
RAPID CITY     FAIR      39  32  76 NE10      29.96R
6HR MIN TEMP:  37; 6HR MAX TEMP:  42;

$$

  *****  SOME WEATHER IN NEARBY STATES *****

CITY           SKY/WX    TMP DP  RH WIND       PRES   REMARKS
GLASGOW MT     MOCLDY    33  31  92 NW6       30.03R
6HR MIN TEMP:  32; 6HR MAX TEMP:  38;

GREAT FALLS MT FAIR      30  23  75 S12       30.08S WCI  20
6HR MIN TEMP:  29; 6HR MAX TEMP:  40;

CHEYENNE WY    FOG       37  37 100 N16       29.86S VSB 1/4
6HR MIN TEMP:  37; 6HR MAX TEMP:  43; 6HR PCP:  0.02;

SCOTTSBLUFF NE LGT RAIN  46  43  89 SE15      29.89R FOG
6HR MIN TEMP:  46; 6HR MAX TEMP:  50; 6HR PCP:  0.58;

OMAHA NE       CLOUDY    39  35  86 NW5       30.07R
6HR MIN TEMP:  33; 6HR MAX TEMP:  41;

DES MOINES IA  CLOUDY    48  41  76 NE3       30.07R
6HR MIN TEMP:  46; 6HR MAX TEMP:  48;

DAVENPORT IA   CLOUDY    46  44  93 NE7       30.06R
6HR MIN TEMP:  46; 6HR MAX TEMP:  48;

CHICAGO IL     CLOUDY    41  35  79 NE13      30.06R
6HR MIN TEMP:  41; 6HR MAX TEMP:  42;

EAU CLAIRE WI  FOG       29  29 100 CALM      30.10R VSB 1/4
6HR MIN TEMP:  26; 6HR MAX TEMP:  32;

LA CROSSE WI   FAIR      32  32 100 N3        30.10S FOG
6HR MIN TEMP:  31; 6HR MAX TEMP:  41;

$$

  *****  SOME NATIONAL WEATHER *****

CITY           SKY/WX    TMP DP  RH WIND       PRES   REMARKS
LA GUARDIA NY  CLOUDY    42  39  89 NE10      29.96R FOG
6HR MIN TEMP:  42; 6HR MAX TEMP:  44; 6HR PCP:  0.19;

RALEIGH NC     LGT RAIN  62  58  86 SW8       29.94F
6HR MIN TEMP:  62; 6HR MAX TEMP:  66; 6HR PCP:  0.02;

ATLANTA GA     LGT RAIN  62  62 100 SW9       29.98R
6HR MIN TEMP:  62; 6HR MAX TEMP:  65; 6HR PCP:  0.04;

NEW ORLEANS LA MOCLDY    69  69 100 CALM      29.98R
6HR MIN TEMP:  67; 6HR MAX TEMP:  71;

OKLAHOMA CITY  MOCLDY    49  47  93 NE10      29.94S
6HR MIN TEMP:  47; 6HR MAX TEMP:  53;

ALBUQUERQUE NM CLOUDY    47  34  60 NW10      29.81S
6HR MIN TEMP:  46; 6HR MAX TEMP:  52;

SALT LAKE CITY FAIR      38  32  79 NW13      30.06R
6HR MIN TEMP:  38; 6HR MAX TEMP:  42;

LOS ANGELES CA FAIR      60  39  45 VRB3      29.98F
6HR MIN TEMP:  57; 6HR MAX TEMP:  65;

BOISE ID       FAIR      35  31  85 NW3       30.24R
6HR MIN TEMP:  34; 6HR MAX TEMP:  42;

SEATTLE WA     CLOUDY



USA.gov is the U.S. government's official web portal to all federal, state and local government web resources and services.